Regional Weather Roundup
Issued by NWS State College, PA

Home | Current Version | Previous Version | Graphics & Text | Print | Product List | Glossary On
Versions: 1 2 3 4 5 6 7 8 9 10 11 12 13 14 15 16 17 18 19 20 21 22 23 24 25 26 27 28 29 30 31 32 33 34 35 36 37 38 39 40 41 42 43 44 45 46 47 48 49 50
000
ASUS41 KCTP 171910
RWRCTP

REGIONAL WEATHER ROUNDUP
NATIONAL WEATHER SERVICE STATE COLLEGE PA
200 PM EST WED DEC 17 2014

Note: "fair" indicates few or no clouds below 12,000 feet with no
significant weather and/or obstructions to visibility.

* = STATION THAT DOES NOT REPORT PRECIPITATION /E.G. RAIN...SNOW...ETC/
    THUNDER OR FOG.

PAZ002>004-007>009-013>016-020>023-029>032-172000-
WESTERN PENNSYLVANIA

CITY           SKY/WX    TMP DP  RH WIND       PRES   REMARKS
ERIE           CLOUDY    34  26  72 W18G25    30.01S
MEADVILLE      CLOUDY    31  23  72 W16G28    30.00S
FRANKLIN*      CLOUDY    30  25  80 W12G17    30.01S
NEW CASTLE       N/A     33  25  73 W13       30.06S
BEAVER COUNTY  CLOUDY    32  25  74 W12G22    30.05S
BUTLER*        CLOUDY    34  25  69 W12G22    30.05S
PITTSBURGH INT CLOUDY    33  27  78 W12       30.05F
PITTSBURGH     CLOUDY    34  22  61 W15G25    30.04S
INDIANA*       CLOUDY    34  30  86 W15G23    30.04R FOG
LATROBE        CLOUDY   N/A N/A N/A W17G29    30.05F
WASHINGTON CO* CLOUDY    34  27  75 SW9       30.08S
$$

PAZ004>006-010>012-017>019-024>028-033>037-041-042-045-046-049>053-172000-
CENTRAL PENNSYLVANIA

CITY           SKY/WX    TMP DP  RH WIND       PRES   REMARKS
BRADFORD       LGT SNOW  30  26  85 W15G23    29.90R VSB 3/4
DUBOIS         LGT SNOW  32  29  88 W16G24    29.94R FOG
CLEARFIELD     CLOUDY    35  30  82 W16G23    29.94S
JOHNSTOWN      CLOUDY    31  25  78 W21G32    29.93S
ALTOONA        CLOUDY    36  30  79 W14       29.96S
STATE COLLEGE  CLOUDY    37  30  75 W15G23    29.93F
WILLIAMSPORT   CLOUDY    44  34  67 W13       29.89S
SELINSGROVE    LGT RAIN  44  33  65 W12G21    29.93S
FT INDIANTOWN  CLOUDY    45  31  57 W10G23    29.93R
CAPITAL CITY   CLOUDY    46  31  55 W12       29.95R
HARRISBURG     CLOUDY    45  30  55 W21       29.94R
YORK           MOSUNNY   47  30  51 W22G29    29.94S
$$

PAZ038>040-043-044-047-048-054-055-060>062-067>071-172000-
EASTERN PENNSYLVANIA

CITY           SKY/WX    TMP DP  RH WIND       PRES   REMARKS
SCRANTON       CLOUDY    44  37  76 SW10      29.84S
MOUNT POCONO   CLOUDY    38  35  89 W10       29.80R
ALLENTOWN      CLOUDY    50  34  54 W12G24    29.86S
QUAKERTOWN*    CLOUDY    48  36  61 W10G16    29.88R
READING        CLOUDY    47  32  56 W13       29.90R
LANCASTER      CLOUDY    46  32  58 W21G32    29.92R
COATESVILLE    CLOUDY    48  37  66 W17       29.91R
POTTSTOWN      CLOUDY    48  35  60 W15G28    29.90R
BLUE BELL      CLOUDY    50  36  57 W12G28    29.87R
DOYLESTOWN     CLOUDY    48  35  60 NW13G20   29.86R
WILLOW GROVE   NOT AVBL
NORTH PHILA    CLOUDY    53  35  50 NW16      29.88S
PHILADELPHIA   PTSUNNY   52  34  50 W23G30    29.90R
$$



USA.gov is the U.S. government's official web portal to all federal, state and local government web resources and services.